Location: Boiro
(42.6475°N, 8.8834°W)
Time: 12:12:05
(UTC+01:00)

Vanguard 1 Rocket - Pass Details

Date: 04 December 2021
Orbit: 651 x 4224 km, 34.3° (Epoch: 21 January)

Event Time Altitude Azimuth Distance (km) Brightness Sun altitude
Exits shadow 04:50:37 57° 179° (S) 2,761 9.5 -43.1°
Maximum altitude 04:51:46 59° 164° (SSE) 2,839 9.6 -42.9°
Drops below altitude 10° 05:12:13 10° 92° (E) 6,971 12.6 -39.1°
Sets 05:18:31 0° 90° (E) 8,288 13.2 -38.0°
